Weather in Leonovka

Russia / Kursk Oblast     51°17′37″N   35°45′46″E
temp.,
°C
wind,
m/s
gust,
m/s
humid.,
%
clouds,
%
prec.,
mm/h
press.,
hPa
HPBL,
m
7 march, sun
sun700:00−9w359683 0.0 1022122
03:00−10w369669 0.0 1021123
06:00−9wsw4119478 0.0 1019233
09:00−6sw7157968 0.0 1017575
12:00−2sw101675100 0.0 10131046
15:00−1wsw111884100 0.0 10091235
18:00−1wsw101889100 0.3 10071138
21:00−1wsw101788100 0.4 10071090
8 march, mon
mon800:00−1w8148998 0.1 1006885
03:00−1wsw8149199 0.2 1006765
06:00−2wsw61296100 0.6 1005680
09:00−2w61092100 1.1 1006921
12:00−2wnw7108495 0.4 10071160
15:00−2wnw697997 0.6 10081203
18:00−5w498869 0.1 1009259
21:00−6w499381 0.1 1011315
9 march, tue
tue900:00−9nw489335 0.0 1012153
03:00−11nw489418 0.0 1013168
06:00−12nw369515 0.0 1015114
09:00−10wnw369440 0.1 1016270
12:00−7nw4689100 0.1 1018590
15:00−7nw5784100 0.1 1019780
18:00−8nw4787100 0.1 1020673
21:00−12nw339168 0.1 102258
10 march, wed
wed1000:00−13nw239010 0.0 102354
03:00−14nnw23906 0.0 102445
06:00−15nnw22920 0.0 102537
09:00−13nne228924 0.0 102689
12:00−9nne117955 0.0 1026307
15:00−7nne007374 0.0 1026503
18:00−9ene2284100 0.0 102638
21:00−11ese1287100 0.0 102723
11 march, thu
thu1100:00−10ese228887 0.0 102732
03:00−10ese238791 0.0 102829
06:00−11se23877 0.0 102830
09:00−8sse36833 0.0 1028210
12:00−4s466961 0.0 1028724
15:00−3ssw476467 0.0 10271104
18:00−5sse347029 0.0 102573
21:00−6s5107115 0.0 1025180